Jamestown, ND

4:21 AM CDT on September 21, 2017 (GMT -0500)
Jamestown Municipal

Weather History for KJMS - February, 2015

Change the Weather History Date:

Sunday, February 8, 2015

  Actual Average Record
Temperature  
Mean Temperature 18 °F 13 °F  
Max Temperature 23 °F 23 °F 56 °F (2000)
Min Temperature 12 °F 3 °F -35 °F (1933)
Degree Days  
Heating Degree Days 47 52  
Month to date heating degree days 435 424  
Since 1 July heating degree days 5560 5786  
Cooling Degree Days 0 0  
Month to date cooling degree days 0 0  
Year to date cooling degree days 0 0  
Moisture  
Dew Point 12 °F    
Average Humidity 85    
Maximum Humidity 96    
Minimum Humidity 73    
Precipitation  
Precipitation T in 0.01 in 1.10 in (1939)
Month to date precipitation 0.03 0.08  
Year to date precipitation 0.30 0.53  
Sea Level Pressure  
Sea Level Pressure 30.03 in    
Wind  
Wind Speed 9 mph (NNE)    
Max Wind Speed 17 mph    
Max Gust Speed 19 mph    
Visibility 9 miles    
Events      
T = Trace of Precipitation, MM = Missing Value Source: NWS Daily Summary

Daily Weather History Graph

Daily Weather History Graph

Search for Another Location

Airport or City:

Trip Planner

Search our weather history database for the weather conditions in past years. The results will help you decide how hot, cold, wet, or windy it might be!

Date:

Astronomy

Feb. 08, 2015 Rise Set
Actual Time 7:50 AM CST 5:48 PM CST
Civil Twilight 7:18 AM CST 6:20 PM CST
Nautical Twilight 6:42 AM CST 6:56 PM CST
Astronomical Twilight 6:06 AM CST 7:31 PM CST
Moon 10:48 PM CST (2/8) 9:39 AM CST (2/8)
Length of Visible Light 11h 01m
Length of Day
9h 58m
Waning Gibbous, 81% of the Moon is Illuminated
Feb 8
Waning Gibbous
Feb 11
Last Quarter
Feb 18
New
Feb 25
First Quarter
Mar 5
Full

Hourly Weather History & Observations

Time (CST) Temp. Windchill Dew Point Humidity Pressure Visibility Wind Dir Wind Speed Gust Speed Precip Events Conditions
12:56 AM 21.0 °F 9.3 °F 18.0 °F 88% 29.80 in 7.0 mi NNE 11.5 mph - N/A   Overcast
1:56 AM 19.9 °F 8.6 °F 17.1 °F 89% 29.82 in 8.0 mi NNE 10.4 mph - N/A   Overcast
2:56 AM 19.0 °F 6.1 °F 16.0 °F 88% 29.84 in 8.0 mi NNE 12.7 mph - N/A   Overcast
3:56 AM 17.1 °F 4.3 °F 15.1 °F 92% 29.86 in 9.0 mi North 11.5 mph - N/A   Overcast
4:56 AM 16.0 °F 2.3 °F 14.0 °F 92% 29.89 in 5.0 mi North 12.7 mph - N/A   Overcast
5:06 AM 15.1 °F 0.5 °F 12.9 °F 91% 29.83 in 2.0 mi North 13.8 mph - N/A   Overcast
5:14 AM 15.1 °F -0.6 °F 12.9 °F 91% 29.83 in 1.8 mi North 16.1 mph - N/A   Overcast
5:25 AM 15.1 °F 1.1 °F 12.9 °F 91% 29.84 in 3.0 mi NNE 12.7 mph - N/A   Overcast
5:56 AM 14.0 °F -0.2 °F 12.0 °F 92% 29.93 in 5.0 mi NNE 12.7 mph - N/A   Overcast
6:40 AM 14.0 °F 1.2 °F 10.9 °F 88% 29.88 in 10.0 mi North 10.4 mph - N/A   Overcast
6:56 AM 12.9 °F -2.2 °F 10.9 °F 92% 29.96 in 10.0 mi North 13.8 mph - N/A   Overcast
7:56 AM 12.0 °F -2.0 °F 10.0 °F 92% 29.99 in 10.0 mi NNE 11.5 mph - N/A   Overcast
8:56 AM 12.0 °F -2.7 °F 10.0 °F 92% 30.02 in 10.0 mi NNE 12.7 mph - N/A   Overcast
9:56 AM 12.9 °F -0.2 °F 10.0 °F 88% 30.05 in 10.0 mi NNE 10.4 mph - N/A   Overcast
10:56 AM 14.0 °F 2.9 °F 10.0 °F 84% 30.07 in 10.0 mi North 8.1 mph - N/A   Overcast
11:26 AM 15.1 °F 3.3 °F 10.0 °F 80% 29.99 in 10.0 mi NNE 9.2 mph - N/A   Overcast
11:56 AM 16.0 °F 5.3 °F 10.0 °F 77% 30.08 in 10.0 mi North 8.1 mph - N/A   Overcast
12:56 PM 18.0 °F 8.7 °F 12.0 °F 78% 30.08 in 10.0 mi NNE 6.9 mph - N/A   Overcast
1:56 PM 19.9 °F 11.1 °F 12.9 °F 74% 30.09 in 10.0 mi NNE 6.9 mph - N/A   Overcast
2:56 PM 19.0 °F 11.1 °F 12.9 °F 77% 30.10 in 10.0 mi North 5.8 mph - N/A   Overcast
3:56 PM 19.0 °F 10.0 °F 12.9 °F 77% 30.11 in 10.0 mi NNE 6.9 mph - N/A   Overcast
4:56 PM 19.0 °F 9.0 °F 12.0 °F 74% 30.13 in 9.0 mi NE 8.1 mph - 0.00 in   Overcast
5:15 PM 18.0 °F 7.7 °F 12.9 °F 81% 30.06 in 9.0 mi ENE 8.1 mph - 0.00 in   Overcast
5:56 PM 18.0 °F 11.1 °F 12.0 °F 78% 30.18 in 10.0 mi ENE 4.6 mph - 0.00 in   Overcast
6:10 PM 18.0 °F 9.8 °F 12.0 °F 78% 30.09 in 10.0 mi ENE 5.8 mph - N/A   Overcast
6:56 PM 17.1 °F 6.6 °F 12.0 °F 81% 30.19 in 10.0 mi East 8.1 mph - 0.00 in   Overcast
7:56 PM 17.1 °F 7.6 °F 12.0 °F 81% 30.22 in 10.0 mi ENE 6.9 mph - N/A   Overcast
8:56 PM 16.0 °F 6.3 °F 10.9 °F 81% 30.24 in 9.0 mi ENE 6.9 mph - 0.00 in   Overcast
9:56 PM 16.0 °F 7.4 °F 10.9 °F 81% 30.25 in 10.0 mi ENE 5.8 mph - 0.00 in   Overcast
10:56 PM 15.1 °F 7.7 °F 10.0 °F 80% 30.26 in 10.0 mi NNE 4.6 mph - N/A   Overcast
11:38 PM 15.1 °F - 10.0 °F 80% 30.17 in 10.0 mi Calm Calm - N/A   Overcast
11:56 PM 15.1 °F 9.4 °F 10.9 °F 84% 30.27 in 8.0 mi NE 3.5 mph - N/A   Overcast